Port Huron, MI

5:39 AM EDT on May 29, 2017 (GMT -0400)
Saint Clair County International

Weather History for KPHN - April, 2014

Change the Weather History Date:

Wednesday, April 9, 2014

  Actual Average (KMTC) Record (KMTC)
Temperature  
Mean Temperature 43 °F -  
Max Temperature 53 °F 50 °F 73 °F (1955)
Min Temperature 33 °F 32 °F 19 °F (1976)
Degree Days  
Heating Degree Days 22    
Moisture  
Dew Point 30 °F    
Average Humidity 63    
Maximum Humidity 93    
Minimum Humidity 33    
Precipitation  
Precipitation 0.00 in - - ()
Sea Level Pressure  
Sea Level Pressure 29.92 in    
Wind  
Wind Speed 5 mph (West)    
Max Wind Speed 12 mph    
Max Gust Speed 16 mph    
Visibility 10 miles    
Events      
Averages and records for this station are not official NWS values.
T = Trace of Precipitation, MM = Missing Value Source: NWS Daily Summary

Daily Weather History Graph

Daily Weather History Graph

Search for Another Location

Airport or City:

Trip Planner

Search our weather history database for the weather conditions in past years. The results will help you decide how hot, cold, wet, or windy it might be!

Date:

Astronomy

Apr. 09, 2014 Rise Set
Actual Time 6:58 AM EDT 8:05 PM EDT
Civil Twilight 6:29 AM EDT 8:34 PM EDT
Nautical Twilight 5:54 AM EDT 9:09 PM EDT
Astronomical Twilight 5:18 AM EDT 9:46 PM EDT
Moon 2:45 PM EDT (4/9) 3:54 AM EDT (4/9)
Length of Visible Light 14h 05m
Length of Day
13h 07m
Waxing Gibbous, 71% of the Moon is Illuminated
Apr 9
Waxing Gibbous
Apr 15
Full
Apr 22
Last Quarter
Apr 29
New
May 6
First Quarter

Hourly Weather History & Observations

Time (EDT) Temp. Windchill Dew Point Humidity Pressure Visibility Wind Dir Wind Speed Gust Speed Precip Events Conditions
12:17 AM 41.0 °F 38.0 °F 33.8 °F 76% 29.80 in 10.0 mi North 4.6 mph - N/A   Overcast
12:37 AM 41.0 °F - 33.8 °F 76% 29.81 in 10.0 mi Calm Calm - N/A   Overcast
12:57 AM 39.2 °F - 35.6 °F 87% 29.82 in 10.0 mi Calm Calm - N/A   Overcast
1:17 AM 39.2 °F - 35.6 °F 87% 29.83 in 10.0 mi Calm Calm - N/A   Overcast
1:37 AM 41.0 °F 39.0 °F 33.8 °F 76% 29.82 in 10.0 mi NNE 3.5 mph - N/A   Overcast
1:57 AM 39.2 °F 37.0 °F 33.8 °F 81% 29.83 in 10.0 mi NE 3.5 mph - N/A   Mostly Cloudy
2:17 AM 37.4 °F - 32.0 °F 81% 29.84 in 10.0 mi Calm Calm - N/A   Mostly Cloudy
2:37 AM 37.4 °F - 33.8 °F 87% 29.84 in 10.0 mi Calm Calm - N/A   Mostly Cloudy
2:57 AM 39.2 °F - 32.0 °F 75% 29.84 in 10.0 mi Calm Calm - N/A   Mostly Cloudy
3:17 AM 39.2 °F - 32.0 °F 75% 29.84 in 10.0 mi Calm Calm - N/A   Overcast
3:37 AM 37.4 °F - 32.0 °F 81% 29.84 in 10.0 mi Calm Calm - N/A   Overcast
3:57 AM 35.6 °F - 32.0 °F 87% 29.85 in 10.0 mi Calm Calm - N/A   Mostly Cloudy
4:17 AM 33.8 °F - 32.0 °F 93% 29.85 in 10.0 mi Calm Calm - N/A   Scattered Clouds
4:37 AM 33.8 °F - 32.0 °F 93% 29.85 in 10.0 mi Calm Calm - N/A   Scattered Clouds
4:57 AM 33.8 °F - 32.0 °F 93% 29.86 in 10.0 mi Calm Calm - N/A   Clear
5:17 AM 33.8 °F 29.6 °F 32.0 °F 93% 29.86 in 10.0 mi NW 4.6 mph - N/A   Clear
5:37 AM 35.6 °F 30.7 °F 32.0 °F 87% 29.87 in 10.0 mi NW 5.8 mph - N/A   Clear
5:57 AM 35.6 °F 29.9 °F 30.2 °F 81% 29.88 in 10.0 mi NW 6.9 mph - N/A   Clear
6:17 AM 35.6 °F 29.9 °F 30.2 °F 81% 29.89 in 10.0 mi NW 6.9 mph - N/A   Clear
6:37 AM 35.6 °F 29.9 °F 30.2 °F 81% 29.89 in 10.0 mi NW 6.9 mph - N/A   Clear
6:57 AM 33.8 °F 27.0 °F 28.4 °F 81% 29.90 in 10.0 mi NW 8.1 mph - N/A   Clear
7:17 AM 33.8 °F 28.6 °F 28.4 °F 81% 29.91 in 10.0 mi NW 5.8 mph - N/A   Clear
7:37 AM 33.8 °F 28.6 °F 28.4 °F 81% 29.92 in 10.0 mi NW 5.8 mph - N/A   Clear
7:57 AM 33.8 °F 27.0 °F 28.4 °F 81% 29.93 in 10.0 mi NW 8.1 mph - N/A   Clear
8:17 AM 35.6 °F 29.2 °F 28.4 °F 75% 29.93 in 10.0 mi NW 8.1 mph - N/A   Clear
8:37 AM 35.6 °F 29.9 °F 30.2 °F 81% 29.94 in 10.0 mi NNW 6.9 mph - N/A   Clear
8:57 AM 37.4 °F 32.1 °F 30.2 °F 75% 29.95 in 10.0 mi NNW 6.9 mph - N/A   Clear
9:17 AM 37.4 °F 31.4 °F 30.2 °F 75% 29.95 in 10.0 mi WNW 8.1 mph - N/A   Clear
9:37 AM 39.2 °F 33.6 °F 30.2 °F 70% 29.96 in 10.0 mi NNW 8.1 mph - N/A   Clear
9:57 AM 41.0 °F 36.4 °F 32.0 °F 70% 29.96 in 10.0 mi NNW 6.9 mph - N/A   Clear
10:17 AM 41.0 °F 39.0 °F 30.2 °F 65% 29.97 in 10.0 mi NNW 3.5 mph - N/A   Clear
10:37 AM 42.8 °F 40.1 °F 30.2 °F 61% 29.98 in 10.0 mi NW 4.6 mph - N/A   Clear
10:57 AM 44.6 °F 41.4 °F 30.2 °F 57% 29.98 in 10.0 mi NW 5.8 mph - N/A   Clear
11:17 AM 44.6 °F 41.4 °F 30.2 °F 57% 29.99 in 10.0 mi North 5.8 mph - N/A   Clear
11:37 AM 46.4 °F 41.9 °F 28.4 °F 50% 29.99 in 10.0 mi North 9.2 mph - N/A   Clear
11:57 AM 46.4 °F 42.9 °F 28.4 °F 50% 29.99 in 10.0 mi NNW 6.9 mph - N/A   Clear
12:17 PM 46.4 °F 43.5 °F 28.4 °F 50% 29.99 in 10.0 mi NW 5.8 mph - N/A   Clear
12:37 PM 48.2 °F - 28.4 °F 46% 29.99 in 10.0 mi NW 6.9 mph - N/A   Clear
12:57 PM 48.2 °F - 26.6 °F 43% 29.99 in 10.0 mi North 5.8 mph - N/A   Clear
1:17 PM 48.2 °F - 26.6 °F 43% 29.99 in 10.0 mi WNW 10.4 mph - N/A   Clear
1:37 PM 48.2 °F - 26.6 °F 43% 29.99 in 10.0 mi NW 3.5 mph - N/A   Clear
1:57 PM 50.0 °F - 28.4 °F 43% 29.98 in 10.0 mi NNW 4.6 mph - N/A   Clear
2:17 PM 50.0 °F - 24.8 °F 37% 29.98 in 10.0 mi West 3.5 mph - N/A   Clear
2:37 PM 51.8 °F - 26.6 °F 38% 29.97 in 10.0 mi WSW 8.1 mph - N/A   Clear
2:57 PM 51.8 °F - 26.6 °F 38% 29.97 in 10.0 mi SW 9.2 mph - N/A   Clear
3:17 PM 51.8 °F - 28.4 °F 41% 29.97 in 10.0 mi WNW 8.1 mph - N/A   Scattered Clouds
3:37 PM 51.8 °F - 26.6 °F 38% 29.97 in 10.0 mi West 8.1 mph - N/A   Scattered Clouds
3:57 PM 51.8 °F - 26.6 °F 38% 29.96 in 10.0 mi WSW 6.9 mph - N/A   Clear
4:17 PM 53.6 °F - 26.6 °F 35% 29.95 in 10.0 mi SSW 3.5 mph - N/A   Clear
4:37 PM 53.6 °F - 24.8 °F 33% 29.95 in 10.0 mi WNW 9.2 mph - N/A   Clear
4:57 PM 53.6 °F - 26.6 °F 35% 29.94 in 10.0 mi NW 10.4 mph - N/A   Clear
5:17 PM 53.6 °F - 26.6 °F 35% 29.95 in 10.0 mi SW 9.2 mph - N/A   Clear
5:37 PM 53.6 °F - 26.6 °F 35% 29.94 in 10.0 mi SSW 4.6 mph - N/A   Clear
5:57 PM 53.6 °F - 26.6 °F 35% 29.94 in 10.0 mi SW 6.9 mph - N/A   Clear
6:17 PM 53.6 °F - 26.6 °F 35% 29.94 in 10.0 mi SSW 9.2 mph - N/A   Clear
6:37 PM 51.8 °F - 28.4 °F 41% 29.94 in 10.0 mi South 9.2 mph - N/A   Clear
6:57 PM 51.8 °F - 26.6 °F 38% 29.94 in 10.0 mi SSW 8.1 mph - N/A   Clear
7:17 PM 51.8 °F - 26.6 °F 38% 29.94 in 10.0 mi SSW 9.2 mph - N/A   Clear
7:37 PM 50.0 °F - 28.4 °F 43% 29.94 in 10.0 mi South 11.5 mph 16.1 mph N/A   Clear
7:57 PM 48.2 °F - 32.0 °F 54% 29.94 in 10.0 mi South 8.1 mph - N/A   Clear
8:17 PM 46.4 °F 41.9 °F 32.0 °F 57% 29.94 in 10.0 mi South 9.2 mph - N/A   Clear
8:37 PM 44.6 °F 40.7 °F 32.0 °F 61% 29.94 in 10.0 mi South 6.9 mph - N/A   Clear
8:57 PM 44.6 °F 38.8 °F 32.0 °F 61% 29.94 in 10.0 mi South 11.5 mph - N/A   Clear
9:17 PM 42.8 °F 37.0 °F 32.0 °F 66% 29.94 in 10.0 mi South 10.4 mph - N/A   Clear
9:37 PM 42.8 °F 37.0 °F 32.0 °F 66% 29.94 in 10.0 mi South 10.4 mph - N/A   Clear
9:57 PM 41.0 °F 35.2 °F 32.0 °F 70% 29.94 in 10.0 mi South 9.2 mph - N/A   Clear
10:17 PM 41.0 °F 35.8 °F 32.0 °F 70% 29.94 in 10.0 mi South 8.1 mph - N/A   Clear
10:37 PM 41.0 °F 34.7 °F 30.2 °F 65% 29.93 in 10.0 mi South 10.4 mph - N/A   Clear
10:57 PM 39.2 °F 33.6 °F 30.2 °F 70% 29.93 in 10.0 mi South 8.1 mph - N/A   Clear
11:17 PM 39.2 °F 34.2 °F 30.2 °F 70% 29.92 in 10.0 mi South 6.9 mph - N/A   Clear
11:37 PM 37.4 °F 32.8 °F 30.2 °F 75% 29.92 in 10.0 mi South 5.8 mph - N/A   Clear
11:57 PM 37.4 °F 32.8 °F 30.2 °F 75% 29.92 in 10.0 mi South 5.8 mph - N/A   Clear